Weather in Darband

Tajikistan     38°53′59″N   70°06′58″E
temp.,
°C
wind,
m/s
gust,
m/s
humid.,
%
clouds,
%
prec.,
mm/h
press.,
hPa
HPBL,
m
19 may, wed
wed1923:00+9wnw226366 0.7 101617
02:00+7nw336820 0.7 101619
05:00+6nnw326839 1.2 101614
08:00+10e115943 0.8 1015407
11:00+14s234365 1.1 10131906
14:00+15sw243881 1.0 10122280
17:00+15s233719 1.1 10122051
20:00+10nw225063 0.1 101312
20 may, thu
thu2023:00+9nnw3357100 0.3 101534
02:00+8nnw336126 0.1 101525
05:00+7nnw225914 0.1 101515
08:00+12e214815 0.1 1014467
11:00+14s234167 0.4 10131852
14:00+11nw456188 1.4 1015427
17:00+11nw4462100 2.5 1015423
20:00+7nne2283100 5.3 1020115
21 may, fri
fri2123:00+6nne338937 6.4 102171
02:00+5n337310 0.0 102024
05:00+5n33644 0.1 102021
08:00+10ene22533 0.0 1019369
11:00+14se224226 0.0 10161511
14:00+16sse33339 0.1 10132369
17:00+11ssw2262100 1.1 1016286
20:00+7ene1173100 0.6 101910
22 may, sat
sat2223:00+7e1176100 0.8 101927
02:00+6ne2284100 0.1 101984
05:00+5nne338597 0.1 101952
08:00+8ne3371100 0.2 1018477
11:00+12ese22545 1.3 1015867
14:00+15ssw444680 1.3 10132099
17:00+13ssw3353100 2.5 10131463
20:00+9w2270100 0.9 101521
23 may, sun
sun2323:00+8nw0171100 1.3 101510
02:00+8n1174100 0.0 101412
05:00+7n2273100 0.0 101412
08:00+10ese1160100 0.0 1014342
11:00+13s3349100 0.1 10141513
14:00+12sw3355100 0.5 10141346
17:00+13s3254100 0.6 10131114
20:00+8wsw117296 0.3 101510